Hourly Weather Roundup
Issued by NWS Central Illinois

Home | Current Version | Previous Version | Text Only | Print | Product List | Glossary On
Versions: 1 2 3 4 5 6 7 8 9 10 11 12 13 14 15 16 17 18 19 20 21 22 23 24 25 26 27 28 29 30 31 32 33 34 35 36 37 38 39 40 41 42 43 44 45 46 47 48 49 50
805
NZUS43 KILX 191710
HWRILX

AREA WEATHER ROUNDUP
NATIONAL WEATHER SERVICE, LINCOLN IL
1100 AM CST THU JAN 19 2017


CITY           SKY/WX    TMP DP  RH WIND       PRES   REMARKS
BLOOMINGTON    PTSUNNY   39  37  92 SE10      29.94F FOG     WCI  32
CHAMPAIGN      CLOUDY    41  38  89 SE13      29.96F FOG     WCI  34
DANVILLE       CLOUDY    40  37  89 SE8       29.95S
DECATUR        CLOUDY    42  40  92 SE10      29.95S
EFFINGHAM      CLOUDY    43  42  94 E5        29.96F
FLORA          LGT RAIN  45  42  90 E8        29.92F
GALESBURG      CLOUDY    39  38  96 SE5       29.90R FOG
JACKSONVILLE   CLOUDY    44  40  88 SE9       29.89F
LACON          PTSUNNY   38  36  94 SE8       29.93S FOG     WCI  32
LAWRENCEVILLE  CLOUDY    45  41  86 E10       29.97F
LITCHFIELD     LGT RAIN  42  41  97 SE7       29.89F
$$


CITY           SKY/WX    TMP DP  RH WIND       PRES   REMARKS
LINCOLN        PTSUNNY   42  40  91 SE12      29.93S FOG
MACOMB         CLOUDY    37  37  99 SE9       29.92S FOG     WCI  31
MATTOON        CLOUDY    42  38  85 SE13      29.95S
MT CARMEL AP   CLOUDY    45  39  81 E10       29.97F
OLNEY-NOBLE AP CLOUDY    43  43 100 E8        29.95F
PARIS          CLOUDY    42  39  92 SE10      29.99R
PEORIA         PTSUNNY   41  37  86 SE6       29.92F
PONTIAC        CLOUDY    37  37 100 SE10      29.95F FOG     WCI  30
RANTOUL        CLOUDY    42  39  92 SE10      29.96F FOG
SPRINGFIELD    PTSUNNY   45  40  82 SE13      29.92F HAZE
TAYLORVILLE    RAIN      41  39  94 SE9       29.91F
$$

...REGIONAL REPORTS...


CITY           SKY/WX    TMP DP  RH WIND       PRES   REMARKS
CHICAGO O`HARE CLOUDY    38  35  89 SE7       29.95F FOG     WCI  33
KANKAKEE       PTSUNNY   39  37  91 SE7       29.97F FOG     WCI  34
MOLINE         CLOUDY    38  34  85 E9        29.90F FOG     WCI  31
MOUNT STERLING CLOUDY    42  40  95 SE10      29.87F FOG
MOUNT VERNON   LGT RAIN  44  42  93 NE10      29.92F FOG
PITTSFIELD     CLOUDY    43  42  98 SE7       29.89F FOG
QUINCY         LGT RAIN  42  42 100 S9        29.87F VSB 1
ROCKFORD       FOG       35  34  96 SE6       29.95F VSB 1   WCI  30
$$


CITY           SKY/WX    TMP DP  RH WIND       PRES   REMARKS
BURLINGTON     CLOUDY    38  37  97 SE6       29.88R FOG     WCI  33
CEDAR RAPIDS   DRIZZLE   34  33  96 SE6       29.87F FOG     WCI  29
DES MOINES     DRIZZLE   37  36  96 E6        29.83F FOG     WCI  32
KIRKSVILLE     FOG       39  39 100 SE3       29.84S VSB 1/4
OTTUMWA        RAIN      36  34  92 E7        29.85S VSB 1/2 WCI  30
ST LOUIS       LGT RAIN  46  43  89 SE9       29.87F FOG
$$


CITY           SKY/WX    TMP DP  RH WIND       PRES   REMARKS
TERRE HAUTE    CLOUDY    43  38  82 SE10      29.98F
EVANSVILLE     CLOUDY    47  42  83 E7        29.93F
INDIANAPOLIS   CLOUDY    44  38  79 SE13      29.99F
LAFAYETTE      CLOUDY    41  38  89 SE8       29.96F
MADISON        FOG       33  33 100 S6        29.94F VSB 1/4 WCI  28
MILWAUKEE      FOG       34  33  96 S5        29.97F VSB 1/4 WCI  30
$$






USA.gov is the U.S. government's official web portal to all federal, state and local government web resources and services.